| time (UTC) | temp F | wind direction | speed MPH | gust MPH | rain 1hr in | rain 24hr in | rain mn in | humidity % | barometer mb |
| 20260906111552 | 72 | 0 | 0.0 | 0.0 | 0.00 | 0.01 | 0.00 | 96 | 1011.4 |
| 20260906110049 | 72 | 0 | 0.0 | 0.0 | 0.00 | 0.01 | 0.00 | 96 | 1011.3 |
| 20260906104545 | 72 | 0 | 0.0 | 2.0 | 0.00 | 0.01 | 0.00 | 96 | 1011.4 |
| 20260906103052 | 72 | 0 | 0.0 | 2.0 | 0.00 | 0.01 | 0.00 | 96 | 1011.4 |
| 20260906101556 | 72 | 0 | 0.0 | 2.0 | 0.00 | 0.01 | 0.00 | 96 | 1011.0 |
| 20260906100049 | 72 | 0 | 0.0 | 0.0 | 0.00 | 0.01 | 0.00 | 96 | 1010.6 |
| 20260906094544 | 73 | 0 | 0.0 | 1.0 | 0.00 | 0.01 | 0.00 | 96 | 1010.5 |
| 20260906093052 | 73 | 0 | 0.0 | 2.0 | 0.00 | 0.01 | 0.00 | 96 | 1010.2 |
| 20260906091549 | 73 | 0 | 0.0 | 0.0 | 0.00 | 0.01 | 0.00 | 96 | 1010.2 |
| 20260906090052 | 73 | 0 | 0.0 | 0.0 | 0.00 | 0.01 | 0.00 | 95 | 1010.4 |
| 20260906084545 | 74 | 0 | 0.0 | 2.0 | 0.00 | 0.01 | 0.00 | 96 | 1010.4 |
| 20260906083054 | 74 | 0 | 0.0 | 0.0 | 0.00 | 0.01 | 0.00 | 96 | 1010.5 |
| 20260906081553 | 74 | 0 | 0.0 | 2.0 | 0.00 | 0.01 | 0.00 | 96 | 1010.2 |
| 20260906080052 | 74 | 313 | 0.0 | 2.0 | 0.00 | 0.01 | 0.00 | 96 | 1010.3 |
| 20260906074550 | 74 | 0 | 0.0 | 0.0 | 0.00 | 0.01 | 0.00 | 96 | 1010.4 |
| 20260906073043 | 74 | 0 | 0.0 | 2.0 | 0.00 | 0.01 | 0.00 | 96 | 1010.5 |
| 20260906071553 | 74 | 0 | 0.0 | 2.0 | 0.00 | 0.01 | 0.00 | 96 | 1010.9 |
| 20260906070051 | 74 | 0 | 0.0 | 2.0 | 0.00 | 0.01 | 0.00 | 96 | 1011.2 |
| 20260906064549 | 73 | 0 | 0.0 | 0.0 | 0.00 | 0.01 | 0.00 | 95 | 1011.3 |
| 20260906063045 | 74 | 0 | 0.0 | 0.0 | 0.00 | 0.01 | 0.00 | 95 | 1011.2 |
| 20260906061603 | 74 | 0 | 0.0 | 0.0 | 0.00 | 0.01 | 0.00 | 95 | 1011.1 |
| 20260906060057 | 74 | 0 | 0.0 | 0.0 | 0.00 | 0.01 | 0.00 | 95 | 1011.1 |
| 20260906054549 | 74 | 0 | 0.0 | 0.0 | 0.00 | 0.01 | 0.00 | 94 | 1011.4 |
| 20260906053044 | 74 | 0 | 0.0 | 2.0 | 0.00 | 0.01 | 0.00 | 94 | 1011.6 |
| 20260906051603 | 75 | 0 | 0.0 | 0.0 | 0.00 | 0.01 | 0.00 | 93 | 1011.2 |
| 20260906050049 | 75 | 0 | 0.0 | 2.0 | 0.00 | 0.01 | 0.00 | 93 | 1011.2 |
| 20260906044546 | 76 | 313 | 0.0 | 1.0 | 0.00 | 0.01 | 0.00 | 94 | 1011.3 |
| 20260906043053 | 76 | 0 | 0.0 | 4.0 | 0.00 | 0.01 | 0.00 | 93 | 1011.7 |
| 20260906041544 | 76 | 168 | 1.0 | 4.0 | 0.00 | 0.01 | 0.00 | 93 | 1011.8 |
| 20260906040055 | 75 | 212 | 1.0 | 4.0 | 0.00 | 0.01 | 0.00 | 94 | 1011.9 |
| 20260906034550 | 75 | 127 | 1.0 | 5.0 | 0.00 | 0.01 | 0.01 | 94 | 1012.1 |
| 20260906033045 | 75 | 137 | 1.0 | 3.0 | 0.00 | 0.01 | 0.01 | 95 | 1012.2 |
| 20260906031554 | 74 | 89 | 0.0 | 5.0 | 0.00 | 0.01 | 0.01 | 95 | 1012.5 |
| 20260906030050 | 75 | 68 | 2.0 | 5.0 | 0.00 | 0.01 | 0.01 | 94 | 1013.0 |
| 20260906024545 | 76 | 0 | 0.0 | 2.0 | 0.00 | 0.01 | 0.01 | 96 | 1012.1 |
| 20260906023050 | 75 | 0 | 0.0 | 2.0 | 0.00 | 0.01 | 0.01 | 96 | 1011.9 |
| 20260906021551 | 75 | 350 | 0.0 | 0.0 | 0.00 | 0.01 | 0.01 | 96 | 1011.7 |
| 20260906020049 | 75 | 350 | 0.0 | 2.0 | 0.00 | 0.01 | 0.01 | 95 | 1011.6 |
| 20260906014549 | 75 | 0 | 0.0 | 1.0 | 0.00 | 0.01 | 0.01 | 96 | 1011.5 |
| 20260906013046 | 75 | 30 | 0.0 | 2.0 | 0.00 | 0.01 | 0.01 | 96 | 1011.4 |
| 20260906011554 | 75 | 0 | 0.0 | 2.0 | 0.00 | 0.01 | 0.01 | 95 | 1011.6 |
| 20260906010050 | 74 | 0 | 0.0 | 0.0 | 0.00 | 0.01 | 0.01 | 95 | 1011.4 |
| 20260906004552 | 74 | 0 | 0.0 | 2.0 | 0.00 | 0.01 | 0.01 | 95 | 1011.1 |
| 20260906003050 | 74 | 265 | 0.0 | 2.0 | 0.00 | 0.01 | 0.01 | 95 | 1011.4 |
| 20260906001549 | 73 | 161 | 0.0 | 2.0 | 0.01 | 0.01 | 0.01 | 93 | 1011.4 |
| 20260906000045 | 74 | 176 | 1.0 | 2.0 | 0.01 | 0.01 | 0.01 | 93 | 1011.2 |
| 20260905234545 | 74 | 358 | 1.0 | 5.0 | 0.01 | 0.01 | 0.01 | 86 | 1011.2 |
| 20260905233051 | 77 | 109 | 2.0 | 6.0 | 0.01 | 0.01 | 0.01 | 80 | 1013.1 |
| 20260905231548 | 81 | 4 | 2.0 | 9.0 | 0.00 | 0.00 | 0.00 | 70 | 1012.3 |
| 20260905230054 | 84 | 102 | 1.0 | 4.0 | 0.00 | 0.00 | 0.00 | 86 | 1012.1 |
| 20260905224552 | 84 | 255 | 1.0 | 7.0 | 0.00 | 0.00 | 0.00 | 86 | 1011.2 |
| 20260905223051 | 84 | 153 | 2.0 | 6.0 | 0.00 | 0.00 | 0.00 | 86 | 1010.2 |
| 20260905221547 | 85 | 83 | 3.0 | 8.0 | 0.00 | 0.00 | 0.00 | 86 | 1010.6 |
| 20260905220057 | 85 | 174 | 2.0 | 9.0 | 0.00 | 0.00 | 0.00 | 86 | 1010.0 |
| 20260905214549 | 85 | 200 | 3.0 | 9.0 | 0.00 | 0.00 | 0.00 | 85 | 1010.0 |
| 20260905213048 | 86 | 152 | 1.0 | 6.0 | 0.00 | 0.00 | 0.00 | 84 | 1010.3 |
| 20260905211543 | 87 | 271 | 2.0 | 8.0 | 0.00 | 0.00 | 0.00 | 82 | 1010.3 |
| 20260905210107 | 89 | 169 | 2.0 | 9.0 | 0.00 | 0.00 | 0.00 | 79 | 1010.2 |
| 20260905204553 | 89 | 210 | 2.0 | 6.0 | 0.00 | 0.00 | 0.00 | 79 | 1010.2 |
| 20260905203047 | 89 | 84 | 3.0 | 8.0 | 0.00 | 0.00 | 0.00 | 79 | 1010.2 |
| 20260905201552 | 89 | 193 | 3.0 | 8.0 | 0.00 | 0.00 | 0.00 | 79 | 1010.2 |
| 20260905200059 | 89 | 152 | 2.0 | 8.0 | 0.00 | 0.00 | 0.00 | 78 | 1010.2 |
| 20260905194548 | 89 | 175 | 3.0 | 9.0 | 0.00 | 0.00 | 0.00 | 77 | 1010.6 |
| 20260905193050 | 89 | 130 | 3.0 | 8.0 | 0.00 | 0.00 | 0.00 | 77 | 1010.6 |
| 20260905191551 | 89 | 91 | 3.0 | 10.0 | 0.00 | 0.00 | 0.00 | 79 | 1011.0 |
| 20260905190059 | 90 | 232 | 2.0 | 6.0 | 0.00 | 0.00 | 0.00 | 78 | 1011.4 |
| 20260905184554 | 90 | 1 | 2.0 | 5.0 | 0.00 | 0.00 | 0.00 | 77 | 1011.6 |
| 20260905183110 | 90 | 176 | 2.0 | 9.0 | 0.00 | 0.00 | 0.00 | 75 | 1011.8 |
| 20260905181552 | 90 | 181 | 4.0 | 8.0 | 0.00 | 0.00 | 0.00 | 75 | 1011.9 |
| 20260905180052 | 90 | 98 | 2.0 | 7.0 | 0.00 | 0.00 | 0.00 | 74 | 1012.0 |
| 20260905174547 | 90 | 82 | 2.0 | 7.0 | 0.00 | 0.00 | 0.00 | 74 | 1012.2 |
| 20260905173051 | 92 | 96 | 1.0 | 7.0 | 0.00 | 0.00 | 0.00 | 70 | 1012.3 |
| 20260905171553 | 93 | 263 | 2.0 | 6.0 | 0.00 | 0.00 | 0.00 | 66 | 1012.4 |
| 20260905170052 | 93 | 246 | 1.0 | 3.0 | 0.00 | 0.00 | 0.00 | 65 | 1012.8 |
| 20260905164556 | 93 | 254 | 1.0 | 3.0 | 0.00 | 0.00 | 0.00 | 66 | 1012.9 |
| 20260905163056 | 92 | 236 | 1.0 | 4.0 | 0.00 | 0.00 | 0.00 | 68 | 1012.9 |
| 20260905161550 | 92 | 256 | 1.0 | 4.0 | 0.00 | 0.00 | 0.00 | 68 | 1013.2 |
| 20260905160052 | 91 | 306 | 1.0 | 4.0 | 0.00 | 0.00 | 0.00 | 69 | 1013.3 |
| 20260905154548 | 91 | 299 | 1.0 | 3.0 | 0.00 | 0.00 | 0.00 | 73 | 1013.6 |
| 20260905153106 | 89 | 251 | 2.0 | 5.0 | 0.00 | 0.00 | 0.00 | 72 | 1013.8 |
| 20260905151552 | 89 | 297 | 1.0 | 4.0 | 0.00 | 0.00 | 0.00 | 73 | 1013.9 |
| 20260905150049 | 89 | 293 | 1.0 | 3.0 | 0.00 | 0.00 | 0.00 | 74 | 1013.9 |
| 20260905144555 | 87 | 1 | 2.0 | 4.0 | 0.00 | 0.00 | 0.00 | 77 | 1014.0 |
| 20260905143053 | 86 | 281 | 2.0 | 4.0 | 0.00 | 0.00 | 0.00 | 78 | 1014.2 |
| 20260905141559 | 86 | 292 | 2.0 | 5.0 | 0.00 | 0.00 | 0.00 | 78 | 1014.2 |
| 20260905140100 | 85 | 292 | 2.0 | 4.0 | 0.00 | 0.00 | 0.00 | 79 | 1014.4 |
| 20260905134546 | 84 | 291 | 2.0 | 4.0 | 0.00 | 0.00 | 0.00 | 82 | 1014.3 |
| 20260905133055 | 83 | 323 | 2.0 | 4.0 | 0.00 | 0.00 | 0.00 | 83 | 1014.3 |
| 20260905131604 | 82 | 297 | 2.0 | 3.0 | 0.00 | 0.00 | 0.00 | 86 | 1014.2 |
| 20260905130054 | 81 | 270 | 2.0 | 5.0 | 0.00 | 0.00 | 0.00 | 87 | 1014.3 |
| 20260905124555 | 81 | 259 | 2.0 | 3.0 | 0.00 | 0.00 | 0.00 | 89 | 1014.2 |
| 20260905123056 | 80 | 266 | 1.0 | 4.0 | 0.00 | 0.00 | 0.00 | 91 | 1014.4 |
| 20260905121553 | 79 | 305 | 1.0 | 3.0 | 0.00 | 0.00 | 0.00 | 93 | 1014.3 |
| 20260905120053 | 78 | 196 | 1.0 | 4.0 | 0.00 | 0.00 | 0.00 | 94 | 1014.3 |
| 20260905114550 | 77 | 274 | 1.0 | 2.0 | 0.00 | 0.00 | 0.00 | 95 | 1014.2 |
| 20260905113046 | 77 | 272 | 1.0 | 2.0 | 0.00 | 0.00 | 0.00 | 95 | 1014.1 |